Flag for Germany Weather past 2 weeks in Mönchengladbach, North Rhine-Westphalia, Germany

Now
64 °F

Broken clouds.


Feels Like: 64 °F
Forecast: 57 / 65 °F
Wind: 9 mph from West

Location: Monchengladbach Airport

Current Time: Aug 29, 2014 at 12:16:32 PM

Latest Report: Aug 29, 2014 at 11:50 AM


Visibility: N/A

Pressure: 30.01 "Hg

Humidity: 68%

Dew point: 54 °F

Location of MönchengladbachLocation

Historic Weather in Mönchengladbach — Graph

°F

Mönchengladbach temperature yesterday

Maximum temperature yesterday: 73 °F (at 1:50 PM)
Minimum temperature yesterday: 55 °F (at 7:50 AM)
Average temperature yesterday: 69 °F

Past Weeks' High & Low Weather Summary

 TemperatureHumidityPressure
High73 °F (Aug 28, 1:50 PM)100% (Aug 16, 7:50 AM)30.09 "Hg (Aug 16, 7:50 AM)
Low48 °F (Aug 21, 7:50 AM)43% (Aug 27, 2:20 PM)29.62 "Hg (Aug 26, 7:50 AM)
Average61 °F74%29.92 "Hg
* Reported Aug 14 10:20 AM — Aug 29 10:50 AM, Mönchengladbach, Weather by CustomWeather, © 2014

Note: Actual official high and low records may vary slightly from our data, if they occured in-between our weather recording intervals... More about our weather records

Advertising

Mönchengladbach weather history for previous 24 hours

 ConditionsComfort  
Time TempWeatherWind HumidityBarometerVisibility
10:50 AM
Aug 29
64 °FScattered clouds.8 mph78%30.01 "HgN/A
10:20 AM63 °FBroken clouds.6 mph88%30.01 "HgN/A
9:50 AM63 °FScattered clouds.5 mph88%29.98 "HgN/A
9:20 AM63 °FPartly sunny.3 mph83%29.98 "HgN/A
8:50 AM61 °FPartly sunny.3 mph88%29.98 "HgN/A
8:20 AM61 °FScattered clouds.3 mph88%29.98 "HgN/A
7:50 AM61 °FSunny.2 mph88%29.98 "Hg10 mi
7:50 PM
Aug 28
70 °FPassing clouds.6 mph73%29.92 "HgN/A
7:20 PM72 °FPassing clouds.7 mph69%29.92 "HgN/A
6:50 PM72 °FPassing clouds.6 mph69%29.92 "HgN/A
6:20 PM72 °FPassing clouds.8 mph69%29.95 "HgN/A
5:50 PM72 °FPassing clouds.6 mph69%29.95 "HgN/A
5:20 PM72 °FPassing clouds.5 mph69%29.95 "HgN/A
4:50 PM70 °FPassing clouds.7 mph69%29.95 "HgN/A
4:20 PM70 °FPassing clouds.8 mph73%29.95 "HgN/A
3:50 PM72 °FPassing clouds.8 mph65%29.95 "HgN/A
3:20 PM72 °FPassing clouds.6 mph65%29.95 "HgN/A
2:50 PM72 °FPartly cloudy.7 mph65%29.95 "HgN/A
2:20 PM73 °FPassing clouds.5 mph61%29.95 "HgN/A
1:50 PM73 °FPartly cloudy.5 mph61%29.95 "HgN/A
1:20 PM72 °FPartly cloudy.7 mph65%29.98 "HgN/A
12:50 PM72 °FPassing clouds.8 mph61%29.98 "HgN/A
12:20 PM72 °FSunny.8 mph65%29.98 "Hg10 mi
Weather by CustomWeather, © 2014

See weather overviewHow to use our weather pages